Regional Weather Roundup
Issued by NWS Pendleton, OR

Home | Current Version | Previous Version | Text Only | Print | Product List | Glossary On
Versions: 1 2 3 4 5 6 7 8 9 10 11 12 13 14 15 16 17 18 19 20 21 22 23 24 25 26 27 28 29 30 31 32 33 34 35 36 37 38 39 40 41 42 43 44 45 46 47 48 49 50
000
ASUS46 KPDT 311725
RWRPDT
PENDLETON REGIONAL WEATHER ROUNDUP
NATIONAL WEATHER SERVICE PENDLETON OREGON
900 AM PST SAT JAN 31 2015

NOTE: FAIR INDICATES FEW OR NO CLOUDS BELOW 12,000 FEET WITH NO
SIGNIFICANT WEATHER AND/OR OBSTRUCTIONS TO VISIBILITY.

# INDICATES UNOFFICIAL STATION AND DATA

WAZ520-311810-
EAST SLOPES OF WASHINGTON CASCADES

CITY            SKY/WX      TMP DP  RH  WIND    PRES   REMARKS
#BUMPING DAM    N/A         26  N/A N/A N1      N/A
#CLE ELUM HS    N/A         31  30  96  CALM    30.24R
#CLE ELUM LAKE  N/A         27  26  96  CALM    30.38R
#CLIFFDEL 2NW   N/A         28  27  96  CALM    N/A
#GLENWOOD       N/A         31  30  96  CALM    30.37R
#MANASTASH CYN  N/A         28  24  85  CALM    30.22R
#NELSON         N/A         30  29  96  CALM    30.39R
#NELSON 3SW     N/A         27  26  96  CALM    30.60S
#NILE           N/A         30  29  96  CALM    29.62R
#RONALD 2NW     N/A         29  21  72  CALM    30.11S
#SNOWDEN        N/A         29  27  92  CALM    N/A
#TEANAWAY 4NE   N/A         31  30  96  CALM    N/A
#TROUT LAKE 1NE N/A         30  29  96  CALM    30.39R
$$

WAZ521-311810-
SIMCOE HIGHLANDS

CITY            SKY/WX      TMP DP  RH  WIND    PRES   REMARKS
#BICKLETON HS   N/A         28  28  100 CALM    N/A
#CENTERVILLE 4W N/A         33  32  96  N6      30.04R
#CENTERVILLE 1SWN/A         31  29  92  E3      30.36R
#GOLDENDALE     N/A         32  32  100 E3      N/A
#GOLDENDALE 1NE N/A         33  30  89  CALM    N/A
#GOLDENDALE 1S  N/A         30  30  100 CALM    30.27R
#GOLDENDALE 5WNWN/A         32  31  96  CALM    30.37R
#GOODNOE HILLS  N/A         34  30  85  E8      N/A
#LYLE 6NE       N/A         31  30  96  N2      30.35R
$$

WAZ026-311810-
KITTITAS VALLEY

CITY            SKY/WX      TMP DP  RH  WIND    PRES   REMARKS
ELLENSBURG AP   CLOUDY      35  30  82  N3      30.30S HAZE
#ELLENSBURG CWU N/A         33  31  92  CALM    30.32R
#ELLENSBURG 3NE N/A         32  31  96  CALM    30.29S
#ELLENSBURG 1E  N/A         32  29  89  CALM    N/A
#KITTITAS 4N    N/A         33  30  89  SW1     28.60R
#THORP 6N       N/A         29  28  96  SE2     30.40R
$$

WAZ027-311810-
YAKIMA VALLEY

CITY            SKY/WX      TMP DP  RH  WIND    PRES   REMARKS
SUNNYSIDE AP    CLOUDY      34  32  92  NE3     30.36R
YAKIMA AIRPORT  CLOUDY      37  31  79  CALM    30.34F
YAKIMA-VAGABOND CLOUDY      34  32  92  S5      30.32S
#DONALD 2NE     N/A         34  32  92  CALM    29.19S
#MABTON         N/A         36  34  92  W3      30.36R
#MOXEE 2E       N/A         34  32  92  CALM    30.31S
#NACHES 2SW     N/A         33  32  96  CALM    30.29S
#OUTLOOK DOT    N/A         N/A N/A N/A W2      N/A
#SELAH 8E       N/A         31  31  100 CALM    N/A
#TERRACE HTS    N/A         34  33  96  CALM    30.36R
#TOPPENISH      N/A         34  33  96  CALM    30.31R
#WAPATO 4NE     N/A         34  32  92  CALM    29.19S
#WEST VALLEY    N/A         35  33  92  CALM    30.37S
#W YAKIMA       N/A         35  32  89  CALM    30.40R
#WHITE SWAN 5E  N/A         35  33  92  CALM    30.40R
#WILEY CITY 3W  N/A         33  26  75  CALM    30.34R
$$

WAZ028-311810-
LOWER COLUMBIA BASIN...WASHINGTON

CITY            SKY/WX      TMP DP  RH  WIND    PRES   REMARKS
HANFORD         CLOUDY      35  35  100 W2      30.35R
PASCO           CLOUDY      37  36  96  CALM    30.37S
PROSSER AWOS    N/A         37  37  100 W3      30.40R
#BASIN CITY 5SW N/A         37  36  96  CALM    30.36S
#BENTON CITY    N/A         35  34  96  CALM    30.29
#CONNELL 5N     N/A         34  33  96  CALM    30.38R
#CONNELL 5NW    N/A         34  33  96  CALM    30.35R
#ELTOPIA 6NW    N/A         35  34  96  N1      29.31R
#KAHLOTUS       N/A         33  32  96  CALM    30.38R
#KENNEWICK 3S   N/A         35  34  96  CALM    30.39S
#PATERSON       N/A         37  33  85  N6      30.36S
#PROSSER        N/A         35  32  89  CALM    30.39R
#SAGEMOOR 2W    N/A         35  34  96  CALM    30.23S
#TOUCHET 2S     N/A         36  35  96  CALM    30.36R
#WEST PASCO     N/A         38  35  89  CALM    30.35R
$$

WAZ029-311810-
FOOTHILLS OF THE BLUES...WASHINGTON

CITY            SKY/WX      TMP DP  RH  WIND    PRES   REMARKS
WALLA WALLA AP  CLOUDY      35  33  92  CALM    30.33R FOG
#DAYTON SCHOOL  N/A         34  27  75  N2      30.31R
#LOWDEN 2SE     N/A         37  36  96  CALM    30.33R
#PLEASANT VIEW 1N/A         32  31  96  CALM    30.42R
#PRESCOTT       N/A         35  34  96  CALM    30.36R
#SUDBURY        N/A         40  N/A N/A CALM    N/A
#WHITMAN COLLEGEN/A         35  34  96  CALM    30.42R
#WAITSBURG 5S   N/A         32  31  96  W1      30.48R
#WAITSBURG 8N   N/A         33  29  85  N1      30.15S
#WALLA WALLA 5E N/A         35  33  92  NW1     N/A
#WALLA WALLA U  N/A         37  35  92  CALM    30.38R
#WHITMAN MISSIONN/A         37  35  92  CALM    30.39R
$$

WAZ030-311810-
BLUE MOUNTAINS...WASHINGTON

CITY            SKY/WX      TMP DP  RH  WIND    PRES   REMARKS
#DIXIE 5SE      N/A         27  26  96  CALM    30.17R
#SKI BLUEWOOD   N/A         31  26  81  S1      30.17R
$$

ORZ009-041-WAZ024-311810-
COLUMBIA RIVER GORGE

CITY            SKY/WX      TMP DP  RH  WIND    PRES   REMARKS
THE DALLES AP   CLOUDY      40  33  76  E10     30.37R
#ARLINGTON AIRPON/A         36  34  92  NE3     30.02S
#ARLINGTON HS   N/A         39  33  79  E1      30.32R
#CELILO DOT     N/A         40  31  70  NE3     N/A
#LYLE           N/A         39  36  89  NE1     30.39R
#MOSIER 1S      N/A         35  32  89  CALM    30.38R
#MURDOCK        N/A         40  38  92  CALM    30.40R
#RUFUS DOT      N/A         N/A N/A N/A CALM    N/A

$$

ORZ510-311810-
NORTH CENTRAL OREGON

CITY            SKY/WX      TMP DP  RH  WIND    PRES   REMARKS
#CHENOWITH 1W   N/A         32  32  100 E12     N/A    WCI 23
#COW CYN RST AREN/A         29  29  100 NW6     N/A
#DUFUR 9E       N/A         30  30  100 E7      30.42R
#GRASS VALLEY 1SN/A         31  30  96  E2      30.38R
#KENT DOT       N/A         31  27  85  NE6     N/A
#MAUPIN SCHOOL  N/A         31  28  88  CALM    30.33R
#MORO SCHOOL    N/A         31  31  100 NE5     30.29S
#SHANIKO 5WSW   N/A         28  25  88  NW6     N/A
#SHANIKO 4NW    N/A         29  28  96  N6      30.21R
#TYGH VALLEY 2NEN/A         33  31  92  CALM    30.35R
#WAPANITIA AIRPON/A         31  30  96  CALM    30.38R
#WASCO DOT      N/A         35  32  89  E6      N/A
#WASCO AIRPORT  N/A         33  31  92  E7      N/A
#WASCO 5NE      N/A         33  32  96  E1      30.38R
$$

ORZ511-311810-
CENTRAL OREGON

CITY            SKY/WX      TMP DP  RH  WIND    PRES   REMARKS
BEND AIRPORT    SUNNY       30  27  88  CALM    30.22R
PRINEVILLE AP   SUNNY       34  30  85  S3      30.22S
REDMOND AIRPORT PTCLDY      30  28  92  CALM    30.22R
#BEND 1SW       N/A         29  27  92  W2      N/A
#BEND-AWBREY    N/A         36  28  72  S5      30.31R
#BEND-KIM LN    N/A         32  29  89  SW7     30.16R
#CROOKED RVR RANN/A         29  28  96  N20     30.33R WCI 16
#CULVER         N/A         29  27  92  CALM    30.22R
#LAKE BILLY CHINN/A         30  24  78  E3      30.35R
#POWELL BUTTE 3EN/A         30  28  92  E3      N/A
#POWELL BUTTE   N/A         36  33  89  CALM    29.81S
#PRINEVILLE 3N  N/A         31  29  92  NW2     30.27S
#WARM SPRINGS   N/A         36  31  82  CALM    30.26R

$$


ORZ509-311810-
EAST SLOPES OF OREGON CASCADES

CITY            SKY/WX      TMP DP  RH  WIND    PRES   REMARKS
#BLUE BOX PASS  N/A         30  -18 11  SW1     N/A
#CAMP SHERMAN   N/A         28  26  92  CALM    30.37R
#LA PINE DOT    N/A         24  22  92  CALM    N/A
#LA PINE 4NW    N/A         24  21  88  CALM    30.38R
#LAVA BUTTE DOT N/A         25  22  88  CALM    N/A
#MT BACHELOR-MIDN/A         36   6  28  NE13    N/A    WCI 27
#SISTERS AIRPOR N/A         25  25  100 CALM    30.17S
#SISTERS ODOT   N/A         25  N/A N/A CALM    N/A
#SISTERS 1NW    N/A         24  22  92  N6      N/A
#SISTERS 3N     N/A         29  25  85  CALM    30.22R
#SUNRIVER       N/A         26  25  96  S2      30.23R
#TUMALO 3W      N/A         29  26  88  CALM    30.20R
#WANOGA BUTTE D N/A         43   9  24  NE3     N/A

$$

ORZ044-311810-
LOWER COLUMBIA BASIN...OREGON

CITY            SKY/WX      TMP DP  RH  WIND    PRES   REMARKS
HERMISTON       CLOUDY      37  34  89  N6      30.34S FOG
#BOARDMAN SCHOOLN/A         39  33  79  NE2     30.39R
#BOARDMAN 8SW   N/A         38  35  89  N5      30.37R
#ECHO 8SW       N/A         37  37  100 N2      30.32R
#IONE SCHOOL    N/A         34  24  66  N3      30.32R
#IRRIGON 4NW    N/A         39  37  92  N3      N/A
#UMATILLA SCHOOLN/A         35  35  100 CALM    30.41R
#UMATILLA       N/A         39  33  79  VRB2    30.33S
$$

ORZ507-311810-
NORTHERN FOOTHILLS OF THE BLUES

CITY            SKY/WX      TMP DP  RH  WIND    PRES   REMARKS
PENDLETON AIRPT CLOUDY      33  32  96  S5      30.30S FOG
#ADAMS 3WNW     N/A         32  31  96  CALM    30.37S
#ATHENA         N/A         32  31  96  CALM    30.39S
#CAYUSE         N/A         33  31  92  E2      30.35
#HELIX SCHOOL   N/A         33  31  92  CALM    30.37R
#HELIX 3N       N/A         32  31  96  N1      30.24S
#HELIX 6SW      N/A         33  32  96  SE1     30.29
#HOLDMAN 5SE    N/A         34  33  96  CALM    30.30R
#HOLDMAN 6E     N/A         33  32  96  CALM    30.17S
#M-F FERNDALE   N/A         36  32  85  CALM    30.33R
#M-F GROVE ELEM N/A         35  31  85  CALM    30.30R
#M-FREEWATER 5SEN/A         33  30  89  CALM    30.30R
#PENDLETON DNTN N/A         36  30  79  CALM    29.11S
#PDT AQUATIC CTRN/A         36  32  85  CALM    30.28F
#PENDLETON 5NE  N/A         34  33  96  SE2     30.26S
#PDT SUNRIDGE   N/A         34  32  92  CALM    30.34S
#PENDLETON 7NW  N/A         34  31  89  CALM    27.32S
#TUTUILLA       N/A         35  33  92  SW2     30.35S
#UMAPINE 2E     N/A         37  35  92  CALM    30.32R
#WESTON SCHOOL  N/A         31  28  88  CALM    30.28R

$$

ORZ508-311810-
SOUTHERN FOOTHILLS OF THE BLUES

CITY            SKY/WX      TMP DP  RH  WIND    PRES   REMARKS
LEXINGTON       FOG         34  34  100 N9      30.32R VSB<1/4
#AJAX           N/A         30  25  81  N5      30.19S
#CONDON SCHOOL  N/A         30  29  96  CALM    30.19R
#CONDON 5W      N/A         28  27  96  CALM    30.19R
#FOSSIL SCHOOL  N/A         30  27  88  CALM    30.21R
#HEPPNER EOC    N/A         31  29  92  SE1     30.31S
#HEPPNER 4NE    N/A         30  29  96  CALM    30.36S
#LEXINGTON 2SE  N/A         35  31  85  CALM    30.27R
#MIKKALO        N/A         33  33  100 NE2     30.30R
#OLEX 4N        N/A         34  33  96  NE7     30.32S
#RUGGS 5NE      N/A         29  24  81  NE3     30.40R
#RUGGS 2SW      N/A         29  28  96  N1      30.40R

$$

ORZ502-503-311810-
BLUE MOUNTAINS

CITY            SKY/WX      TMP DP  RH  WIND    PRES   REMARKS
MEACHAM         PTCLDY      24  22  92  CALM    30.20S
#BATTLE MTN DOT N/A         24  24  100 S1      N/A
#HARDMAN 10S    N/A         25  24  96  CALM    30.47S
#HEPPNER 15SE   N/A         33  29  85  CALM    30.10F
#LADD CYN SMT   N/A         31  25  78  SW2     N/A
#LADD CREEK ODOTN/A         24  23  96  N2      N/A
#LONG CREEK HS  N/A         24  24  100 CALM    30.18F
#N POWDER DOT   N/A         29  25  85  CALM    N/A
#PIKES PEAK     N/A         25  23  92  CALM    27.99S
#TOLLGATE       N/A         32  27  82  N2      30.07S
#TROY SCHOOL    N/A         34  29  82  S1      30.22R
#UKIAH          N/A         26  25  96  CALM    30.41F
#WESTON 4E      N/A         25  24  96  CALM    30.32S
$$

ORZ505-311810-
JOHN DAY BASIN

CITY            SKY/WX      TMP DP  RH  WIND    PRES   REMARKS
JOHN DAY        FRZFOG      28  28  100 CALM    30.25S VSB 1/4
#DAYVILLE SCHOOLN/A         34  27  75  S5      30.24S
#MITCHELL       N/A         30  30  100 CALM    30.35F
#MONUMENT HS    N/A         35  28  75  CALM    30.28F
#MT. VERNON 5SE N/A         26  25  96  CALM    30.17F
#WINLOCK        N/A         33  29  85  CALM    30.32R
$$

ORZ506-311810-
OCHOCO AND JOHN DAY HIGHLANDS

CITY            SKY/WX      TMP DP  RH  WIND    PRES   REMARKS
#BUCK CREEK DOT N/A         25  25  100 CALM    N/A
#HORSE RIDGE DO N/A         22  20  92  SE2     N/A
#KEYES SMT DOT  N/A         23  22  96  SE2     N/A
#PAULINA SCHOOL N/A         50  35  56  NE1     30.18F
#PINE MTN OBS   N/A         42  16  34  CALM    N/A
#PRAIRIE CITY   N/A         23  19  84  CALM    30.48F
#SENECA         N/A         22  N/A N/A CALM    N/A
#SENECA 9NW     N/A         20  19  96  CALM    30.37R
$$

ORZ049-311810-
GRANDE RONDE VALLEY

CITY            SKY/WX      TMP DP  RH  WIND    PRES   REMARKS
LA GRANDE       SUNNY       28  23  81  N6      30.23R
#COVE           N/A         26  21  81  CALM    30.03S
#COVE SCHOOL    N/A         29  26  88  CALM    30.19R
#COVE 6NW       N/A         21  19  92  CALM    30.42R
#ELGIN 3N       N/A         32  27  82  CALM    30.03S
#ELGIN 1E       N/A         28  24  85  W5      N/A
#IMBLER SCHOOL  N/A         26  23  88  N3      30.18S
#ISLAND CITY 4N N/A         32  31  96  CALM    30.23R
#LADD CYN DOT   N/A         27  25  92  CALM    N/A
#UNION 1S       N/A         28  27  96  CALM    30.27R
$$

ORZ050-311810-
WALLOWA COUNTY

CITY            SKY/WX      TMP DP  RH  WIND    PRES   REMARKS
#ENTERPRISE AP  N/A         28  22  78  CALM    30.12R
#ENTERPRISE HS  N/A         32  28  85  CALM    30.22R
#IMNAHA SCHOOL  N/A         33  29  85  S2      30.28R
#IMNAHA 10S     N/A         22  20  92  SW3     30.24R
#JOSEPH 3N      N/A         27  27  100 E2      30.20R
#JOSEPH 3W      N/A         37  19  48  CALM    30.00R
#LOSTINE        N/A         27  23  85  CALM    30.16R
#MT HOWARD 8000 N/A         24  20  84  W3      30.11R
#PROMISE 1S     N/A         25  24  96  CALM    30.48R
#SHEEP RDG 7000 N/A         30  22  72  CALM    30.20R
#WALLOWA SCHOOL N/A         22  21  96  CALM    31.38R



$$



USA.gov is the U.S. government's official web portal to all federal, state and local government web resources and services.